Moorhead, MN

5:53 PM CDT on October 16, 2017 (GMT -0500)
Moorhead Municipal

Weather History for KJKJ - October, 2012

Change the Weather History Date:

Monday, October 1, 2012

  Actual Average (KFAR) Record (KFAR)
Temperature  
Mean Temperature 58 °F -  
Max Temperature 69 °F 64 °F 90 °F (1992)
Min Temperature 46 °F 39 °F 10 °F (1886)
Degree Days  
Heating Degree Days 8    
Growing Degree Days 8 (Base 50)    
Moisture  
Dew Point 34 °F    
Average Humidity 41    
Maximum Humidity 63    
Minimum Humidity 18    
Precipitation  
Precipitation 0.00 in - - ()
Sea Level Pressure  
Sea Level Pressure 30.02 in    
Wind  
Wind Speed 12 mph (NNW)    
Max Wind Speed 23 mph    
Max Gust Speed 29 mph    
Visibility 10 miles    
Events      
Averages and records for this station are not official NWS values.
T = Trace of Precipitation, MM = Missing Value Source: NWS Daily Summary

Daily Weather History Graph

Daily Weather History Graph

Search for Another Location

Airport or City:

Trip Planner

Search our weather history database for the weather conditions in past years. The results will help you decide how hot, cold, wet, or windy it might be!

Date:

Astronomy

Oct. 01, 2012 Rise Set
Actual Time 7:26 AM CDT 7:05 PM CDT
Civil Twilight 6:55 AM CDT 7:35 PM CDT
Nautical Twilight 6:20 AM CDT 8:10 PM CDT
Astronomical Twilight 5:44 AM CDT 8:46 PM CDT
Moon 7:32 PM CDT (10/1) 9:05 AM CDT (10/1)
Length of Visible Light 12h 39m
Length of Day
11h 39m
Full, 98% of the Moon is Illuminated
Oct 1
Full
Oct 8
Last Quarter
Oct 15
New
Oct 21
First Quarter
Oct 29
Full

Hourly Weather History & Observations

Time (CDT) Temp. Windchill Dew Point Humidity Pressure Visibility Wind Dir Wind Speed Gust Speed Precip Events Conditions
12:15 AM 62.6 °F - 41.0 °F 45% 29.95 in 10.0 mi North 15.0 mph - N/A   Clear
12:34 AM 62.6 °F - 41.0 °F 45% 29.96 in 10.0 mi NNW 10.4 mph - N/A   Clear
12:55 AM 60.8 °F - 39.2 °F 45% 29.96 in 10.0 mi NNW 8.1 mph - N/A   Clear
1:15 AM 60.8 °F - 39.2 °F 45% 29.96 in 10.0 mi NNW 12.7 mph - N/A   Clear
1:34 AM 57.2 °F - 39.2 °F 51% 29.97 in 10.0 mi NNW 11.5 mph - N/A   Clear
1:55 AM 57.2 °F - 41.0 °F 55% 29.98 in 10.0 mi NNW 11.5 mph - N/A   Clear
2:35 AM 57.2 °F - 39.2 °F 51% 29.98 in 10.0 mi NNW 11.5 mph - N/A   Clear
2:55 AM 55.4 °F - 41.0 °F 58% 29.98 in 10.0 mi NNW 15.0 mph - N/A   Clear
3:15 AM 55.4 °F - 41.0 °F 58% 29.98 in 10.0 mi NNW 15.0 mph - N/A   Clear
3:35 AM 55.4 °F - 39.2 °F 54% 29.99 in 10.0 mi NNW 12.7 mph - N/A   Clear
3:55 AM 55.4 °F - 39.2 °F 54% 30.00 in 10.0 mi NNW 11.5 mph - N/A   Clear
4:14 AM 53.6 °F - 39.2 °F 58% 30.00 in 10.0 mi North 10.4 mph - N/A   Clear
4:55 AM 55.4 °F - 41.0 °F 58% 30.01 in 10.0 mi NNW 9.2 mph - N/A   Scattered Clouds
5:14 AM 55.4 °F - 41.0 °F 58% 30.01 in 10.0 mi North 10.4 mph - N/A   Mostly Cloudy
5:35 AM 55.4 °F - 41.0 °F 58% 30.02 in 10.0 mi NNW 10.4 mph - N/A   Scattered Clouds
5:55 AM 57.2 °F - 41.0 °F 55% 30.02 in 10.0 mi North 10.4 mph - N/A   Clear
6:14 AM 57.2 °F - 42.8 °F 59% 30.02 in 10.0 mi North 10.4 mph - N/A   Scattered Clouds
6:35 AM 55.4 °F - 41.0 °F 58% 30.03 in 10.0 mi NNW 10.4 mph - N/A   Scattered Clouds
7:14 AM 55.4 °F - 42.8 °F 63% 30.04 in 10.0 mi NNW 10.4 mph - N/A   Scattered Clouds
7:35 AM 57.2 °F - 42.8 °F 59% 30.04 in 10.0 mi NNW 11.5 mph - N/A   Overcast
8:15 AM 57.2 °F - 42.8 °F 59% 30.06 in 10.0 mi NNW 10.4 mph - N/A   Overcast
8:35 AM 57.2 °F - 44.6 °F 63% 30.06 in 10.0 mi NNW 11.5 mph - N/A   Overcast
8:54 AM 57.2 °F - 44.6 °F 63% 30.07 in 10.0 mi NNW 12.7 mph - N/A   Scattered Clouds
9:15 AM 59.0 °F - 44.6 °F 59% 30.07 in 10.0 mi NNW 18.4 mph - N/A   Clear
9:35 AM 60.8 °F - 42.8 °F 52% 30.08 in 10.0 mi North 17.3 mph - N/A   Clear
10:15 AM 60.8 °F - 42.8 °F 52% 30.09 in 10.0 mi NNW 17.3 mph 21.9 mph N/A   Clear
10:35 AM 62.6 °F - 41.0 °F 45% 30.09 in 10.0 mi North 17.3 mph - N/A   Clear
10:54 AM 62.6 °F - 39.2 °F 42% 30.09 in 10.0 mi North 16.1 mph - N/A   Clear
11:15 AM 64.4 °F - 39.2 °F 40% 30.09 in 10.0 mi North 19.6 mph - N/A   Clear
11:35 AM 66.2 °F - 37.4 °F 35% 30.08 in 10.0 mi North 18.4 mph 24.2 mph N/A   Clear
11:55 AM 66.2 °F - 37.4 °F 35% 30.08 in 10.0 mi North 17.3 mph 25.3 mph N/A   Clear
12:15 PM 66.2 °F - 35.6 °F 32% 30.08 in 10.0 mi North 23.0 mph 28.8 mph N/A   Clear
12:34 PM 66.2 °F - 33.8 °F 30% 30.07 in 10.0 mi North 23.0 mph 27.6 mph N/A   Clear
1:15 PM 66.2 °F - 32.0 °F 28% 30.07 in 10.0 mi NNW 19.6 mph 25.3 mph N/A   Clear
1:35 PM 68.0 °F - 30.2 °F 24% 30.05 in 10.0 mi North 18.4 mph 24.2 mph N/A   Clear
1:55 PM 68.0 °F - 30.2 °F 24% 30.05 in 10.0 mi North 16.1 mph - N/A   Clear
2:15 PM 69.8 °F - 28.4 °F 21% 30.04 in 10.0 mi NNW 18.4 mph - N/A   Clear
2:55 PM 69.8 °F - 24.8 °F 18% 30.04 in 10.0 mi North 18.4 mph 26.5 mph N/A   Clear
3:15 PM 69.8 °F - 24.8 °F 18% 30.03 in 10.0 mi North 17.3 mph 25.3 mph N/A   Clear
3:34 PM 69.8 °F - 24.8 °F 18% 30.03 in 10.0 mi North 20.7 mph - N/A   Clear
3:55 PM 69.8 °F - 26.6 °F 20% 30.03 in 10.0 mi NNW 13.8 mph 24.2 mph N/A   Clear
4:15 PM 69.8 °F - 26.6 °F 20% 30.03 in 10.0 mi North 19.6 mph 27.6 mph N/A   Clear
4:35 PM 69.8 °F - 26.6 °F 20% 30.03 in 10.0 mi North 18.4 mph 25.3 mph N/A   Clear
4:55 PM 69.8 °F - 26.6 °F 20% 30.02 in 10.0 mi North 18.4 mph 25.3 mph N/A   Clear
5:15 PM 69.8 °F - 26.6 °F 20% 30.02 in 10.0 mi North 15.0 mph - N/A   Clear
5:35 PM 69.8 °F - 24.8 °F 18% 30.02 in 10.0 mi North 17.3 mph - N/A   Clear
5:55 PM 68.0 °F - 26.6 °F 21% 30.02 in 10.0 mi North 12.7 mph - N/A   Clear
6:15 PM 66.2 °F - 26.6 °F 23% 30.01 in 10.0 mi North 12.7 mph - N/A   Clear
6:35 PM 64.4 °F - 26.6 °F 24% 30.01 in 10.0 mi North 5.8 mph - N/A   Clear
6:55 PM 60.8 °F - 26.6 °F 27% 30.02 in 10.0 mi North 5.8 mph - N/A   Clear
7:15 PM 59.0 °F - 26.6 °F 29% 30.02 in 7.0 mi North 3.5 mph - N/A   Clear
7:35 PM 57.2 °F - 26.6 °F 31% 30.01 in 10.0 mi North 3.5 mph - N/A   Clear
7:55 PM 55.4 °F - 26.6 °F 33% 30.01 in 7.0 mi Calm Calm - N/A   Clear
8:15 PM 57.2 °F - 26.6 °F 31% 30.01 in 5.0 mi Calm Calm - N/A   Haze
8:35 PM 55.4 °F - 26.6 °F 33% 30.00 in 10.0 mi Calm Calm - N/A   Clear
8:55 PM 55.4 °F - 28.4 °F 36% 30.00 in 7.0 mi Calm Calm - N/A   Clear
9:15 PM 53.6 °F - 28.4 °F 38% 30.01 in 10.0 mi Calm Calm - N/A   Clear
9:35 PM 51.8 °F - 28.4 °F 41% 30.01 in 10.0 mi Calm Calm - N/A   Clear
9:55 PM 51.8 °F - 28.4 °F 41% 30.01 in 10.0 mi Calm Calm - N/A   Clear
10:15 PM 50.0 °F - 28.4 °F 43% 30.00 in 10.0 mi Calm Calm - N/A   Clear
10:35 PM 51.8 °F - 28.4 °F 41% 30.00 in 10.0 mi Calm Calm - N/A   Clear
11:15 PM 46.4 °F - 32.0 °F 57% 30.00 in 10.0 mi Calm Calm - N/A   Clear
11:35 PM 48.2 °F - 33.8 °F 58% 29.99 in 7.0 mi SSE 4.6 mph - N/A   Clear
11:55 PM 46.4 °F 45.2 °F 32.0 °F 57% 29.99 in 7.0 mi SSE 3.5 mph - N/A   Clear